Theta_e
345 347 342 342 341 342 343 345 345 344 344 343 343 342 341 340 340 339 334 332 337 337 338 339 340 338 336 336 334 333 332 329 327 326 329 332 332 331 329 324 328 331 333
345 348 345 342 342 344 344 345 344 343 343 342 341 340 339 337 336 337 335 338 339 337 337 338 339 338 336 334 331 331 329 323 323 325 325 323 326 330 332 328 328 329 333
346 348 347 344 341 343 343 344 343 343 341 340 338 338 337 335 333 335 335 339 338 338 338 338 338 338 334 331 331 331 325 323 323 326 329 328 326 327 326 331 332 328 330
346 347 346 344 342 343 344 343 343 342 340 339 337 336 334 332 332 333 334 338 338 340 339 337 335 333 330 331 332 330 326 327 325 329 331 331 331 333 333 327 326 330 330
346 345 344 342 341 342 342 342 341 341 340 338 335 335 332 331 332 332 333 336 336 337 336 335 334 332 331 333 333 329 328 328 327 330 332 334 335 335 335 334 336 326 327
345 343 342 342 342 342 342 341 342 342 339 337 335 334 331 331 332 332 334 332 333 331 331 331 329 327 331 333 332 328 329 328 329 329 332 332 334 332 335 335 335 335 334
344 343 342 341 342 343 342 341 342 340 339 337 335 335 332 332 332 332 332 332 331 329 330 331 331 332 331 332 328 328 329 328 330 330 331 331 332 331 335 334 333 334 335
343 342 342 341 341 341 340 340 339 340 339 336 337 336 333 332 332 332 331 330 330 331 332 333 333 332 331 328 327 327 328 329 331 331 331 330 329 332 333 332 330 330 331
343 342 342 342 341 340 332 330 331 336 337 334 337 336 334 332 331 331 330 331 333 333 332 331 332 330 327 324 324 325 327 328 330 329 327 327 329 334 332 330 327 327 326
344 342 341 340 340 338 337 331 328 329 335 337 338 335 334 332 329 327 326 330 331 332 330 333 331 327 324 322 322 322 325 325 325 324 323 326 331 332 330 328 326 325 323
344 342 341 340 339 338 337 335 332 335 337 338 339 335 335 333 333 330 330 326 330 332 330 333 330 325 320 319 319 320 320 321 320 321 325 329 330 330 328 325 324 322 322
341 342 341 340 339 338 337 337 336 336 338 340 339 337 334 333 333 333 332 327 328 330 331 332 329 323 319 317 317 316 319 319 318 322 325 328 329 327 325 323 321 320 319
341 342 341 340 340 339 338 336 336 337 336 335 336 336 333 333 335 334 335 332 329 331 334 331 328 323 319 316 316 317 317 316 317 321 325 326 326 324 323 321 319 318 316
341 341 341 341 341 340 339 338 336 336 336 335 333 332 332 333 334 334 334 334 332 330 332 330 326 320 316 314 314 314 313 315 318 321 325 324 323 321 319 317 316 315 315
342 342 341 341 341 342 341 340 339 336 336 336 334 332 332 332 333 334 334 335 333 331 330 328 323 317 314 311 311 312 312 315 318 319 322 322 320 318 317 315 314 313 313
342 342 341 341 342 341 341 341 341 340 337 337 335 334 333 331 331 334 335 335 334 332 329 326 322 317 313 311 309 311 312 314 316 317 319 320 318 316 315 313 312 312 312
331 338 342 342 342 342 342 340 340 341 339 337 337 335 333 332 331 333 334 334 334 332 329 326 320 315 311 309 309 309 310 312 314 315 315 316 315 313 311 311 310 310 310
319 323 331 338 342 342 342 341 341 340 341 339 337 336 335 333 331 331 332 333 332 332 329 323 318 314 312 310 309 307 309 311 312 313 312 312 311 309 308 309 307 306 305
318 318 319 328 336 340 341 341 339 341 340 341 339 337 335 334 333 331 331 331 331 331 328 323 318 315 313 310 308 306 306 309 310 310 310 309 308 307 306 305 303 300 301
317 318 317 318 326 334 338 341 339 339 340 339 340 338 337 335 334 332 330 330 330 330 327 322 318 314 313 311 306 304 304 305 308 309 308 306 305 304 304 304 300 299 296
315 316 317 317 317 323 331 340 339 339 338 337 339 339 338 336 334 332 331 330 329 329 327 323 319 313 309 308 305 305 304 303 304 307 307 305 304 302 302 302 299 298 297
312 313 314 315 316 317 322 331 337 338 338 338 335 334 337 336 334 333 332 330 329 328 327 324 320 313 311 306 309 310 309 305 302 303 305 305 303 302 300 299 298 297 297
311 310 310 311 313 314 316 322 331 335 336 335 334 335 334 336 335 333 332 330 329 327 326 325 319 315 311 305 307 314 310 313 306 302 302 303 302 301 300 299 298 297 296
314 314 312 310 310 311 313 315 323 331 333 332 332 333 334 332 334 334 332 331 329 326 325 324 319 317 315 309 304 304 303 307 309 305 300 300 301 301 300 298 297 296 294
314 314 314 313 312 309 310 312 318 326 329 330 331 332 333 333 331 331 331 331 330 326 325 323 319 317 316 314 308 302 301 301 301 307 307 301 299 299 299 298 296 295 293
314 314 314 313 314 313 312 311 314 319 326 328 330 332 332 332 331 329 329 329 329 328 325 324 320 317 314 313 307 307 303 304 302 303 306 304 302 299 297 296 295 294 292
Wind_Speed
15 18 18 17 18 17 15 15 15 15 13 12 12 11 10 9 8 7 5 4 5 7 8 8 12 12 11 10 10 10 10 9 9 10 10 11 11 10 10 9 9 8 7
21 19 20 17 15 17 16 17 16 15 13 11 12 10 10 8 8 7 6 6 5 6 9 8 13 14 11 10 11 11 9 10 11 11 12 12 11 9 8 11 10 6 10
21 20 20 19 16 18 17 17 17 15 12 9 8 7 8 8 8 8 8 8 8 11 9 10 14 13 11 10 10 10 10 10 10 12 14 9 9 8 7 7 7 6 6
20 20 20 19 17 18 18 17 16 14 12 12 10 8 8 8 9 10 10 8 13 16 16 16 13 12 10 11 10 10 10 10 11 11 7 8 8 7 6 6 4 3 3
18 18 19 19 16 17 16 16 15 14 13 13 12 9 9 9 10 10 11 9 10 12 13 12 10 9 10 10 9 9 9 9 10 9 8 7 7 9 10 7 5 2 2
17 16 18 19 18 16 16 15 15 15 12 12 10 9 10 10 10 10 10 10 9 9 10 9 9 9 9 9 8 8 7 7 8 6 6 7 6 8 8 13 14 12 10
17 15 18 18 17 16 16 16 14 12 13 11 10 10 11 10 10 10 10 10 9 8 8 9 10 10 9 8 6 5 4 5 6 5 5 5 5 7 8 10 11 13 14
16 16 15 17 16 15 14 16 15 14 14 11 13 12 12 11 11 10 11 10 9 9 10 10 9 8 7 5 4 4 4 6 5 4 3 4 4 5 8 9 9 8 11
15 16 15 15 15 15 15 14 15 15 15 14 14 11 12 12 11 10 10 10 9 9 10 10 8 6 5 5 5 5 5 7 4 3 3 3 3 7 11 11 10 10 10
15 15 15 15 14 13 11 12 13 15 16 16 16 11 12 10 10 10 10 10 11 9 10 8 6 5 5 5 5 5 5 5 3 4 3 1 7 10 11 11 9 9 9
14 15 15 15 14 13 11 11 13 15 15 17 17 14 12 11 10 9 10 10 12 11 11 8 7 6 6 6 6 6 6 3 3 3 3 7 9 8 8 8 8 8 9
13 15 15 15 14 13 11 11 13 13 14 15 16 15 14 13 12 11 10 10 10 11 9 9 7 7 6 5 4 4 2 3 2 3 4 8 10 9 9 8 8 8 9
12 14 15 15 15 15 13 12 12 13 14 16 16 16 16 15 13 13 11 10 10 11 9 8 7 7 6 5 5 4 4 3 3 4 6 9 9 8 7 7 8 7 8
13 14 14 16 17 17 15 14 13 14 14 14 16 17 17 17 15 15 14 13 12 12 11 10 9 8 6 5 5 5 4 4 5 6 7 9 10 8 7 7 8 7 7
15 15 16 17 18 17 18 16 16 15 16 16 16 18 18 17 16 15 15 15 14 13 13 12 10 9 7 6 6 5 5 5 6 7 6 11 9 8 8 8 7 6 6
16 16 17 18 18 19 18 18 18 16 17 17 17 18 21 19 17 16 15 16 15 15 13 13 12 10 9 7 6 6 6 6 7 8 8 8 10 9 8 7 6 6 5
14 15 19 19 20 22 22 22 20 19 18 18 19 19 20 21 19 18 17 17 17 16 15 14 13 11 10 8 7 6 6 7 8 8 9 8 8 10 9 8 7 7 6
15 15 17 19 20 22 23 23 22 21 20 21 20 20 22 23 22 21 20 19 18 17 17 16 15 13 12 10 9 7 8 8 9 9 9 10 10 9 11 10 8 7 5
18 19 20 20 23 24 25 24 27 22 24 21 20 22 22 25 24 24 22 21 20 19 19 17 16 15 14 12 10 9 9 9 11 11 11 11 11 11 10 13 12 10 8
16 17 19 20 22 24 24 23 26 27 24 29 23 24 24 25 26 27 24 23 22 22 20 19 18 17 15 13 10 9 9 10 11 12 13 12 12 12 11 11 11 8 10
14 15 16 17 20 23 24 22 24 28 28 27 32 27 25 25 27 28 28 26 26 26 24 23 21 19 15 14 10 8 7 10 12 14 14 15 14 14 13 12 10 9 9
12 13 15 18 19 20 24 26 27 26 24 25 26 28 27 26 28 29 30 30 29 27 27 26 25 20 17 19 12 7 4 8 14 16 16 16 16 15 14 14 13 11 10
5 7 11 15 17 19 20 22 24 23 21 20 24 28 34 33 30 30 30 30 31 28 30 30 30 26 21 20 19 8 3 6 9 12 18 17 17 17 16 15 14 13 11
9 7 7 8 12 15 18 19 24 25 26 27 27 25 25 29 31 30 31 30 30 32 30 34 33 33 23 21 18 21 8 3 4 4 11 18 18 19 18 15 14 13 11
8 8 8 7 6 8 12 17 20 24 24 24 25 25 26 25 32 33 34 31 31 33 34 31 33 34 33 25 25 13 15 9 8 5 4 10 17 19 18 17 15 12 11
10 9 8 8 7 6 5 10 18 22 22 23 22 24 25 23 24 32 34 34 34 32 31 34 35 36 34 28 26 24 18 11 14 9 6 7 10 14 16 15 15 13 11
Wind_Direction
159 160 168 167 169 174 167 161 164 154 151 149 139 134 133 132 127 126 115 101 112 135 135 137 124 109 104 96 90 90 88 87 85 87 90 85 78 74 72 67 65 75 64
156 157 163 157 166 161 163 163 160 154 149 147 137 131 127 126 129 130 121 103 116 137 138 143 126 120 110 103 98 95 91 90 88 84 76 64 76 84 75 76 80 78 68
155 156 156 164 165 161 163 166 161 155 151 148 139 141 128 128 129 131 127 104 76 135 139 131 123 114 109 105 105 101 97 96 96 87 80 78 74 78 73 74 65 82 65
156 159 164 167 166 165 164 163 165 165 163 154 140 140 129 124 127 129 126 106 95 104 101 109 110 108 106 109 107 104 101 98 105 90 83 80 74 56 49 65 70 108 76
158 162 167 170 174 173 171 170 169 167 158 150 164 135 129 123 124 128 128 116 112 114 108 108 107 103 110 110 108 106 106 109 103 90 92 84 71 57 48 59 36 100 123
160 162 167 169 173 180 175 174 172 167 161 164 170 148 130 124 124 129 135 143 152 128 116 115 115 112 118 118 118 113 108 115 99 97 89 70 70 52 63 69 66 72 99
162 163 164 172 178 183 175 172 169 177 168 167 161 144 136 132 130 134 146 149 133 122 118 120 119 119 124 131 126 123 111 121 121 106 93 77 68 72 84 83 76 68 70
163 164 167 176 185 193 191 189 185 178 177 174 165 153 146 143 141 136 137 142 137 132 128 125 126 128 128 126 126 133 121 125 115 106 91 71 59 96 102 86 77 70 70
167 167 171 176 190 203 193 190 191 191 192 181 175 170 161 160 153 149 148 144 144 135 141 139 143 140 132 129 135 143 138 127 120 119 108 83 80 112 102 93 80 76 74
175 176 177 180 187 187 192 194 191 189 191 190 178 185 173 173 165 162 159 157 151 153 152 158 155 146 136 132 133 138 141 121 125 117 103 82 119 105 96 86 80 77 74
185 186 184 185 187 189 190 192 182 173 189 195 188 187 183 179 176 181 178 183 168 170 172 171 171 159 143 137 138 140 128 150 143 139 118 139 111 106 99 91 85 83 83
189 192 193 193 193 193 193 190 188 192 191 187 190 193 194 192 190 189 191 187 179 178 181 188 186 173 147 157 160 159 178 171 163 157 144 154 124 112 109 108 102 96 90
200 200 200 200 201 200 199 196 198 199 199 203 203 201 196 194 198 197 197 194 190 184 180 191 194 189 192 180 182 184 179 174 174 168 162 159 135 127 124 123 114 107 98
210 213 210 207 205 207 206 207 208 206 205 205 207 203 199 199 203 204 205 200 199 198 202 201 199 198 191 189 192 189 187 184 175 172 174 167 146 136 137 129 120 111 100
217 219 217 215 213 212 214 215 215 214 212 213 211 211 211 209 208 208 209 205 204 206 205 205 201 195 195 194 192 197 192 192 181 174 171 182 178 150 147 139 131 125 116
223 222 223 223 224 221 219 219 218 220 218 216 218 217 215 216 214 210 208 203 206 210 209 209 206 199 199 200 201 204 200 196 190 182 177 179 182 165 156 152 143 139 130
237 236 229 225 225 222 225 228 228 225 221 220 221 221 220 219 216 214 210 212 208 212 210 209 204 200 200 201 208 205 201 200 196 189 184 185 183 188 172 165 155 152 151
249 241 239 233 229 227 226 225 226 228 226 225 222 222 220 221 218 217 216 215 213 210 208 207 204 202 204 204 206 204 204 204 203 199 194 189 190 186 185 176 169 165 164
251 247 242 235 233 233 233 230 229 230 227 229 227 225 222 220 220 219 220 217 214 213 209 206 205 206 205 206 204 202 205 208 208 203 203 198 196 191 189 197 198 196 183
255 254 247 241 236 237 238 233 231 233 231 231 229 228 223 221 219 219 219 219 214 214 212 206 205 205 208 206 198 202 207 210 212 213 209 205 204 199 197 196 204 206 212
262 255 246 245 240 238 236 231 226 225 231 234 231 229 227 224 220 216 217 216 214 215 213 208 204 202 202 195 177 202 216 220 218 217 212 211 209 206 204 205 206 209 224
263 256 252 247 242 238 234 233 233 236 239 239 237 236 229 228 225 221 218 213 213 213 212 208 201 198 206 196 199 186 205 216 226 219 216 215 214 211 212 210 212 213 216
323 291 264 254 249 244 239 239 237 236 239 237 237 240 238 231 227 224 223 216 212 211 211 209 203 198 196 203 204 198 178 225 174 205 215 215 213 215 214 215 213 214 215
16 359 338 292 264 252 243 238 234 232 233 237 241 241 240 237 233 228 226 222 215 211 211 209 206 207 199 200 203 220 225 172 199 185 216 216 215 219 217 216 216 217 217
1 359 350 337 331 277 249 236 239 241 245 249 248 248 247 241 240 234 227 224 221 218 215 212 210 208 210 206 201 189 216 221 232 231 187 199 218 219 218 215 212 214 212
1 353 348 342 340 342 300 247 236 238 244 248 247 246 248 248 241 240 233 228 224 220 221 215 216 213 212 211 209 211 195 196 208 203 226 193 210 210 209 212 211 208 210